EW6030 Weather Reports


Display with metric or nautical units.
time (UTC)temp
F
wind
direction
speed
MPH
gust
MPH
rain 1hr
in
rain 24hr
in
rain mn
in
humidity
%
barometer
mb
20260902130022 74 139 0.0 0.0 0.00 0.00 0.00 77 1010.2
20260902124521 74 156 0.0 0.0 0.00 0.00 0.00 77 1010.1
20260902123025 74 156 0.0 0.0 0.00 0.00 0.00 77 1010.1
20260902121520 74 156 0.0 0.0 0.00 0.00 0.00 77 1009.7
20260902120019 74 161 0.0 0.0 0.00 0.00 0.00 77 1009.7
20260902114518 74 161 0.0 0.0 0.00 0.00 0.00 76 1009.9
20260902113017 74 161 0.0 0.0 0.00 0.00 0.00 75 1009.8
20260902111534 75 161 0.0 0.0 0.00 0.00 0.00 74 1009.7
20260902110043 75 161 0.0 0.0 0.00 0.00 0.00 74 1009.9
20260902104518 75 161 0.0 0.0 0.00 0.00 0.00 73 1009.9
20260902103014 75 161 0.0 0.0 0.00 0.00 0.00 74 1009.9
20260902101513 75 161 0.0 0.0 0.00 0.00 0.00 74 1009.6
20260902100015 76 161 0.0 0.0 0.00 0.00 0.00 75 1010.0
20260902094512 76 161 0.0 0.0 0.00 0.00 0.00 74 1009.1
20260902093011 76 161 0.0 0.0 0.00 0.00 0.00 74 1009.2
20260902091511 76 161 0.0 0.0 0.00 0.00 0.00 74 1009.6
20260902090011 76 161 0.0 0.0 0.00 0.00 0.00 75 1009.4
20260902084510 76 161 0.0 0.0 0.00 0.00 0.00 74 1009.3
20260902083015 76 161 0.0 0.0 0.00 0.00 0.00 75 1009.3
20260902081509 76 161 0.0 0.0 0.00 0.00 0.00 75 1009.2
20260902080008 76 156 0.0 0.0 0.00 0.00 0.00 74 1009.2
20260902074507 76 156 0.0 0.0 0.00 0.00 0.00 74 1008.9
20260902073007 75 156 0.0 0.0 0.00 0.00 0.00 75 1008.8
20260902071506 75 156 1.0 0.0 0.00 0.00 0.00 75 1008.9
20260902070007 75 66 0.0 0.0 0.00 0.00 0.00 75 1008.8
20260902064504 75 66 0.0 0.0 0.00 0.00 0.00 75 1008.9
20260902063013 75 66 0.0 0.0 0.00 0.00 0.00 75 1009.2
20260902061503 75 66 0.0 0.0 0.00 0.00 0.00 76 1009.1
20260902060002 75 66 0.0 0.0 0.00 0.00 0.00 76 1009.0
20260902054500 75 66 0.0 0.0 0.00 0.00 0.00 76 1009.0
20260902053003 75 66 0.0 0.0 0.00 0.00 0.00 76 1009.2
20260902051601 75 66 0.0 0.0 0.00 0.00 0.00 76 1009.3
20260902050057 75 66 0.0 0.0 0.00 0.00 0.00 77 1009.2
20260902044557 76 66 0.0 0.0 0.00 0.00 0.00 77 1008.9
20260902043102 76 66 0.0 0.0 0.00 0.00 0.00 77 1008.9
20260902041553 77 66 0.0 0.0 0.00 0.00 0.00 77 1009.0
20260902040050 77 66 0.0 0.0 0.00 0.00 0.00 77 1009.2
20260902034549 77 66 0.0 0.0 0.00 0.00 0.00 77 1009.1
20260902033103 78 66 0.0 0.0 0.00 0.00 0.00 77 1009.1
20260902031547 78 66 0.0 0.0 0.00 0.00 0.00 76 1009.0
20260902030047 79 66 0.0 0.0 0.00 0.00 0.00 76 1008.8
20260902024547 79 66 0.0 0.0 0.00 0.00 0.00 75 1008.6
20260902023049 78 55 0.0 0.0 0.00 0.00 0.00 75 1008.5
20260902021546 78 55 0.0 0.0 0.00 0.00 0.00 76 1009.0
20260902020046 78 55 0.0 0.0 0.00 0.00 0.00 76 1009.1
20260902014545 78 55 0.0 0.0 0.00 0.00 0.00 75 1009.0
20260902013045 79 55 0.0 0.0 0.00 0.00 0.00 76 1009.3
20260902011544 79 55 0.0 0.0 0.00 0.00 0.00 76 1009.1
20260902010048 79 55 0.0 0.0 0.00 0.00 0.00 76 1009.2
20260902004543 79 55 0.0 0.0 0.00 0.00 0.00 75 1008.9
20260902003043 80 55 0.0 0.0 0.00 0.00 0.00 75 1008.7
20260902001543 80 55 0.0 0.0 0.00 0.00 0.00 76 1008.8
20260902000050 81 55 0.0 0.0 0.00 0.00 0.00 76 1008.8
20260901234549 81 55 0.0 0.0 0.00 0.00 0.00 76 1008.8
20260901233041 82 55 0.0 0.0 0.00 0.00 0.00 76 1008.6
20260901231542 83 55 0.0 0.0 0.00 0.00 0.00 76 1008.6
20260901230045 83 55 0.0 0.0 0.00 0.00 0.00 76 1008.8
20260901224540 82 55 0.0 0.0 0.00 0.00 0.00 75 1008.8
20260901223040 82 55 0.0 0.0 0.00 0.00 0.00 75 1008.6
20260901221603 82 55 0.0 0.0 0.00 0.00 0.00 75 1008.5
20260901220039 81 55 0.0 0.0 0.00 0.00 0.00 75 1008.2
20260901214537 83 58 0.0 0.0 0.00 0.00 0.00 75 1008.4
20260901213058 84 57 0.0 0.0 0.00 0.00 0.00 72 1009.2
20260901211542 85 57 0.0 0.0 0.00 0.00 0.00 71 1009.2
20260901210038 86 57 1.0 0.0 0.00 0.00 0.00 70 1009.2
20260901204534 86 64 1.0 0.0 0.00 0.00 0.00 72 1009.1
20260901203042 86 246 0.0 0.0 0.00 0.00 0.00 74 1009.3
20260901201533 86 245 0.0 0.0 0.00 0.00 0.00 74 1009.3
20260901200041 86 88 0.0 0.0 0.00 0.00 0.00 74 1009.2
20260901194532 86 297 0.0 0.0 0.00 0.00 0.00 75 1009.1
20260901193035 87 236 0.0 0.0 0.00 0.00 0.00 75 1009.3
20260901191532 86 215 0.0 0.0 0.00 0.00 0.00 75 1009.5
20260901190031 86 93 0.0 0.0 0.00 0.00 0.00 74 1009.8
20260901184534 87 341 0.0 0.0 0.00 0.00 0.00 73 1009.3
20260901183029 87 243 0.0 0.0 0.00 0.00 0.00 74 1009.6
20260901181529 87 230 0.0 0.0 0.00 0.00 0.00 73 1009.1
20260901180028 87 72 0.0 0.0 0.00 0.00 0.00 73 1009.4
20260901174529 87 72 1.0 0.0 0.00 0.00 0.00 72 1009.7
20260901173026 88 133 0.0 0.0 0.00 0.00 0.00 71 1009.7
20260901171527 87 73 0.0 0.0 0.00 0.00 0.00 73 1009.7
20260901170022 86 72 0.0 0.0 0.00 0.00 0.00 75 1009.9
20260901164518 85 48 0.0 0.0 0.00 0.00 0.00 76 1009.8
20260901163017 84 47 0.0 0.0 0.00 0.00 0.00 76 1009.9
20260901161514 83 45 0.0 0.0 0.00 0.00 0.00 76 1010.1
20260901160010 82 46 1.0 0.0 0.00 0.00 0.00 75 1010.1
20260901154515 81 34 0.0 0.0 0.00 0.00 0.00 73 1010.1
20260901153006 79 33 0.0 0.0 0.00 0.00 0.00 72 1010.0
20260901151502 79 33 0.0 0.0 0.00 0.00 0.00 72 1010.0
20260901150001 79 33 0.0 0.0 0.00 0.00 0.00 71 1010.2
20260901144600 79 33 0.0 0.0 0.00 0.00 0.00 71 1009.6
20260901143059 78 33 0.0 0.0 0.00 0.00 0.00 71 1010.3
20260901141601 78 33 0.0 0.0 0.00 0.00 0.00 70 1010.5
20260901140054 77 33 0.0 0.0 0.00 0.00 0.00 70 1010.6
20260901134552 76 33 0.0 0.0 0.00 0.00 0.00 70 1010.3
20260901133050 76 33 0.0 0.0 0.00 0.00 0.00 71 1010.3
20260901131554 75 33 0.0 0.0 0.00 0.00 0.00 71 1010.2